Weather in Zavetnoye

Russia / Primorsky Krai     44°42′33″N   134°41′50″E
temp.,
°C
wind,
m/s
gust,
m/s
humid.,
%
clouds,
%
prec.,
mm/h
press.,
hPa
HPBL,
m
24 january, mon
mon2401:00−23wnw00100100 0.1 102916
04:00−23nw01100100 0.2 102915
07:00−24nne00100100 0.1 103013
10:00−20wnw1198100 0.2 1029101
13:00−14wnw2484100 0.0 1028612
16:00−13wnw2484100 0.1 1026641
19:00−20sw1110080 0.0 10289
22:00−23ese1110094 0.0 10299
25 january, tue
tue2501:00−24e1110097 0.0 10299
04:00−25e1110095 0.0 10289
07:00−25e1110075 0.0 102810
10:00−17ne119275 0.0 102661
13:00−10nw12785 0.0 1023375
16:00−8nw127733 0.0 1021516
19:00−18ese119937 0.0 10249
22:00−20ese11100100 0.0 102410
26 january, wed
wed2601:00−19e11100100 0.0 102410
04:00−19e11100100 0.0 102310
07:00−19ene1110084 0.0 10239
10:00−16nw119431 0.0 102364
13:00−10wnw238061 0.0 1020547
16:00−9wnw4687100 0.1 1020824
19:00−14wnw2499100 0.2 1023128
22:00−18wnw11100100 0.3 102513
27 january, thu
thu2701:00−19nw11100100 0.1 102614
04:00−20nw01100100 0.3 102614
07:00−20nnw0110097 0.1 102615
10:00−17wnw1395100 0.3 1026151
13:00−13wnw4685100 0.1 1024955
16:00−12wnw4787100 0.4 10231015
19:00−16w2698100 0.3 1025237
22:00−21w11100100 0.3 102513
28 january, fri
fri2801:00−21sw01100100 0.1 102513
04:00−21w11100100 0.3 102329
07:00−23ssw01100100 0.1 102313
10:00−17wnw2595100 0.3 1020210
13:00−13wnw61087100 0.1 10171084
16:00−13wnw51191100 0.5 10161171
19:00−15wnw41296100 0.3 10161323
22:00−17wnw3897100 0.6 1017515